Flag for U.S.A. Weather past 2 weeks in Lafayette, Indiana, U.S.A.

Now
26 °F

Clear.


Feels Like: 21 °F
Forecast: 22 / 43 °F
Wind: 5 mph from Southeast

Location: Purdue University Airport

Current Time: Mar 29, 2015 at 1:13:49 AM

Latest Report: Mar 29, 2015 at 12:54 AM


Visibility: 10 mi

Pressure: 30.34 "Hg

Humidity: 63%

Dew point: 15 °F

Location of LafayetteLocation

Historic Weather in Lafayette — Graph

°F

Lafayette temperature yesterday

Maximum temperature yesterday: 38 °F (at 5:54 PM)
Minimum temperature yesterday: 16 °F (at 4:54 AM)
Average temperature yesterday: 26 °F

Past Weeks' High & Low Weather Summary

 TemperatureHumidityPressure
High72 °F (Mar 16, 4:54 PM)100% (Mar 13, 11:54 PM)30.39 "Hg (Mar 13, 11:54 PM)
Low16 °F (Mar 28, 4:54 AM)24% (Mar 18, 3:54 PM)29.79 "Hg (Mar 25, 4:54 AM)
Average40 °F68%30.14 "Hg
* Reported Mar 13 11:54 PM — Mar 28 11:54 PM, Lafayette, Weather by CustomWeather, © 2015

Note: Actual official high and low records may vary slightly from our data, if they occured in-between our weather recording intervals... More about our weather records

Advertising

Lafayette weather history for previous 24 hours

 ConditionsComfort  
Time TempWeatherWind HumidityBarometerVisibility
11:54 PM
Sat, Mar 28
25 °FClear.No wind63%30.36 "Hg10 mi
10:54 PM28 °FClear.No wind53%30.35 "Hg10 mi
9:54 PM27 °FClear.6 mph53%30.34 "Hg10 mi
8:54 PM29 °FSunny.5 mph54%30.33 "Hg10 mi
7:54 PM35 °FSunny.5 mph36%30.32 "Hg10 mi
6:54 PM37 °FSunny.No wind27%30.32 "Hg10 mi
5:54 PM38 °FSunny.6 mph26%30.32 "Hg10 mi
4:54 PM37 °FSunny.7 mph28%30.31 "Hg10 mi
3:54 PM35 °FSunny.3 mph32%30.32 "Hg10 mi
2:54 PM34 °FSunny.No wind35%30.34 "Hg10 mi
1:54 PM32 °FSunny.No wind36%30.35 "Hg10 mi
12:54 PM31 °FSunny.5 mph41%30.36 "Hg10 mi
11:54 AM28 °FSunny.6 mph41%30.36 "Hg10 mi
10:54 AM26 °FSunny.7 mph48%30.35 "Hg10 mi
9:54 AM23 °FSunny.6 mph63%30.33 "Hg10 mi
8:54 AM21 °FSunny.8 mph71%30.31 "Hg10 mi
7:54 AM17 °FClear.6 mph76%30.29 "Hg10 mi
6:54 AM16 °FClear.7 mph84%30.26 "Hg10 mi
5:54 AM16 °FClear.5 mph87%30.24 "Hg10 mi
4:54 AM16 °FClear.No wind87%30.24 "Hg10 mi
3:54 AM17 °FClear.No wind88%30.23 "Hg10 mi
2:54 AM18 °FClear.3 mph80%30.23 "Hg10 mi
1:54 AM19 °FClear.3 mph74%30.23 "Hg10 mi
Weather by CustomWeather, © 2015

See weather overviewHow to use our weather pages